Tracking 28790 objects as of 19-Apr-2024
HD Live streaming from Space Station
objects crossing your sky now

THORAD AGENA D DEB

Track THORAD AGENA D DEB now!
10-day predictions


NORAD ID: 4686
Int'l Code: 1970-025BK
Perigee: 1,028.3 km
Apogee: 1,080.7 km
Inclination: 100.2 °
Period: 106.1 minutes
Semi major axis: 7425 km
RCS: 0.051 m2 (small)
Launch date: April 8, 1970
Source: United States (US)
Launch site: AIR FORCE WESTERN TEST RANGE (AFWTR)

Note: This is SATELLITE DEBRIS
Your satellite tracking list
Your tracking list is empty




NASA's NSSDC Master Catalog

Two Line Element Set (TLE):
1 04686U 70025BK  24109.39307937  .00000723  00000-0  10848-2 0  9990
2 04686 100.2358 172.2716 0035260 255.0638 175.6446 13.56802680663553
Source of the keplerian elements: AFSPC